EW5673 Weather Reports


time (UTC)temp
C
wind
direction
speed
KPH
gust
KPH
rain 1hr
cm
rain 24hr
cm
rain mn
cm
humidity
%
barometer
mb
20260507074558 12 9 3.2 8.0 0.00 0.00 0.00 74 1021.0
20260507073058 11 351 3.2 9.7 0.00 0.00 0.00 74 1021.0
20260507071553 11 9 3.2 6.4 0.00 0.00 0.00 79 1021.0
20260507070051 11 360 3.2 8.0 0.00 0.00 0.00 80 1020.9
20260507064553 11 0 3.2 8.0 0.00 0.00 0.00 81 1020.9
20260507063051 10 346 0.0 8.0 0.00 0.00 0.00 85 1020.8
20260507061552 10 355 3.2 8.0 0.00 0.00 0.00 86 1020.8
20260507060057 9 9 1.6 8.0 0.00 0.00 0.00 87 1020.6
20260507054546 9 355 3.2 6.4 0.00 0.00 0.00 87 1020.6
20260507053051 9 5 3.2 8.0 0.00 0.00 0.00 87 1020.5
20260507051549 9 360 1.6 6.4 0.00 0.00 0.00 88 1020.4
20260507050051 8 360 1.6 4.8 0.00 0.00 0.00 88 1020.2
20260507044551 8 360 1.6 3.2 0.00 0.00 0.00 87 1020.1
20260507043055 8 0 0.0 3.2 0.00 0.00 0.00 87 1020.0
20260507041550 9 360 1.6 6.4 0.00 0.00 0.00 86 1019.8
20260507040054 9 352 1.6 6.4 0.00 0.00 0.00 86 1019.6
20260507034553 9 10 1.6 6.4 0.00 0.00 0.00 86 1019.5
20260507033054 9 0 1.6 4.8 0.00 0.00 0.00 86 1019.4
20260507031552 9 5 3.2 6.4 0.00 0.00 0.00 86 1019.3
20260507030052 9 360 3.2 8.0 0.00 0.00 0.00 87 1019.3
20260507024602 9 80 0.0 3.2 0.00 0.00 0.00 87 1019.3
20260507023057 9 0 0.0 0.0 0.00 0.00 0.00 87 1019.2
20260507021556 9 0 0.0 0.0 0.00 0.00 0.00 87 1019.1
20260507020107 9 0 0.0 0.0 0.00 0.00 0.00 87 1018.9
20260507014607 9 0 0.0 0.0 0.00 0.00 0.00 87 1018.9
20260507013055 9 0 0.0 0.0 0.00 0.00 0.00 87 1018.9
20260507011558 9 0 0.0 0.0 0.00 0.00 0.00 86 1018.9
20260507010053 9 0 0.0 0.0 0.00 0.00 0.00 86 1018.9
20260507004557 9 0 0.0 0.0 0.00 0.00 0.00 86 1018.8
20260507003052 10 0 0.0 0.0 0.00 0.00 0.00 85 1018.7
20260507001557 10 0 0.0 0.0 0.00 0.00 0.00 84 1018.6
20260507000054 10 0 0.0 0.0 0.00 0.00 0.00 84 1018.6
20260506234600 10 0 0.0 0.0 0.00 0.00 0.00 83 1018.6
20260506233052 10 0 0.0 0.0 0.00 0.00 0.00 83 1018.5
20260506231556 10 0 0.0 0.0 0.00 0.00 0.00 82 1018.4
20260506230059 10 0 0.0 0.0 0.00 0.00 0.00 82 1018.3
20260506224551 10 0 0.0 0.0 0.00 0.00 0.00 81 1018.3
20260506223056 10 0 0.0 0.0 0.00 0.00 0.00 80 1018.2
20260506221550 10 0 0.0 0.0 0.00 0.00 0.00 79 1018.2
20260506220052 11 0 0.0 0.0 0.00 0.00 0.00 76 1018.1
20260506214552 11 0 0.0 0.0 0.00 0.00 0.00 75 1018.0
20260506213104 11 0 0.0 1.6 0.00 0.00 0.00 74 1017.9
20260506211603 11 0 0.0 3.2 0.00 0.00 0.00 73 1017.9
20260506210055 11 0 0.0 3.2 0.00 0.00 0.00 73 1017.7
20260506204557 11 0 0.0 4.8 0.00 0.00 0.00 73 1017.7
20260506203053 11 0 0.0 4.8 0.00 0.00 0.00 72 1017.6
20260506201558 11 108 0.0 4.8 0.00 0.00 0.00 71 1017.5
20260506200058 11 150 0.0 3.2 0.00 0.00 0.00 71 1017.4
20260506194604 11 78 1.6 4.8 0.00 0.00 0.00 70 1017.0
20260506193053 11 0 0.0 4.8 0.00 0.00 0.00 70 1017.0
20260506191553 11 288 1.6 6.4 0.00 0.00 0.00 70 1016.8
20260506190056 11 30 1.6 6.4 0.00 0.00 0.00 70 1016.8
20260506184607 11 239 1.6 8.0 0.00 0.00 0.00 70 1016.5
20260506183103 11 333 3.2 12.9 0.00 0.00 0.00 69 1016.4
20260506181554 12 24 3.2 14.5 0.00 0.00 0.00 67 1016.2
20260506180055 12 328 6.4 14.5 0.00 0.00 0.00 65 1015.8
20260506174555 12 12 3.2 12.9 0.00 0.00 0.00 67 1015.8
20260506173054 12 5 8.0 17.7 0.00 0.00 0.00 63 1015.7
20260506171555 13 355 4.8 14.5 0.00 0.00 0.00 61 1015.6
20260506170107 13 360 6.4 16.1 0.00 0.00 0.00 63 1015.4
20260506164556 13 26 6.4 16.1 0.00 0.00 0.00 64 1015.2
20260506163106 13 12 6.4 16.1 0.00 0.00 0.00 66 1015.0
20260506161550 13 355 8.0 17.7 0.00 0.00 0.00 65 1014.8
20260506160056 14 5 8.0 17.7 0.00 0.00 0.00 64 1014.9
20260506154555 13 329 6.4 12.9 0.00 0.00 0.00 69 1014.9
20260506153054 13 338 6.4 11.3 0.00 0.00 0.00 69 1015.0
20260506151555 13 332 6.4 12.9 0.00 0.00 0.00 70 1014.9
20260506150046 13 339 6.4 16.1 0.00 0.00 0.00 69 1015.0
20260506144600 13 338 8.0 16.1 0.00 0.00 0.00 67 1014.9
20260506143050 13 336 9.7 19.3 0.00 0.00 0.00 67 1014.7
20260506141554 13 333 6.4 14.5 0.00 0.00 0.00 74 1014.9
20260506140054 13 333 6.4 16.1 0.00 0.00 0.00 74 1014.9
20260506134551 13 344 6.4 16.1 0.00 0.00 0.00 72 1014.9
20260506133052 13 328 8.0 16.1 0.00 0.00 0.00 68 1014.9
20260506131552 13 343 6.4 14.5 0.00 0.00 0.00 69 1014.8
20260506130059 13 342 8.0 14.5 0.00 0.00 0.00 67 1014.6
20260506124552 14 350 8.0 20.9 0.00 0.00 0.00 69 1014.6
20260506123052 14 9 8.0 19.3 0.00 0.00 0.00 70 1014.7
20260506121554 13 329 9.7 16.1 0.00 0.00 0.00 70 1014.5
20260506120047 14 329 11.3 17.7 0.00 0.00 0.00 72 1014.5
20260506114550 15 336 11.3 17.7 0.00 0.00 0.00 71 1014.5
20260506113052 15 330 9.7 19.3 0.00 0.00 0.00 71 1014.4
20260506111551 15 348 9.7 19.3 0.00 0.00 0.00 74 1014.4
20260506110050 13 350 9.7 19.3 0.00 0.00 0.00 74 1014.5
20260506104553 13 330 9.7 19.3 0.00 0.00 0.00 75 1014.5
20260506103053 13 321 8.0 20.9 0.00 0.00 0.00 80 1014.5
20260506101551 13 349 11.3 19.3 0.00 0.00 0.00 80 1014.5
20260506100050 13 336 8.0 17.7 0.00 0.00 0.00 83 1014.5
20260506094551 12 311 11.3 17.7 0.00 0.00 0.00 83 1014.4
20260506093052 12 344 8.0 16.1 0.00 0.00 0.00 86 1014.4
20260506091559 11 344 8.0 16.1 0.00 0.00 0.00 87 1014.4
20260506090056 11 340 8.0 14.5 0.00 0.00 0.00 90 1014.3
20260506084612 11 332 6.4 12.9 0.00 0.00 0.00 92 1014.2
20260506083056 10 336 6.4 12.9 0.00 0.00 0.00 93 1014.3
20260506081556 9 329 3.2 8.0 0.00 0.00 0.00 93 1014.1